Regional Weather Roundup
Issued by NWS

Home | Current Version | Previous Version | Graphics & Text | Print | Product List | Glossary On
Versions: 1 2 3 4 5 6 7 8 9 10 11 12 13 14 15 16 17 18 19 20 21 22 23 24 25 26 27 28 29 30 31 32 33 34 35 36 37 38 39 40 41 42 43 44 45 46 47 48 49 50
000
ASUS43 KLOT 280509
RWRIL

ILLINOIS REGIONAL WEATHER ROUNDUP
NATIONAL WEATHER SERVICE CHICAGO/ROMEOVILLE IL
1200 AM CDT THU JUL 28 2016

NOTE: "FAIR" INDICATES FEW OR NO CLOUDS BELOW 12,000 FEET WITH NO
SIGNIFICANT WEATHER AND/OR OBSTRUCTIONS TO VISIBILITY.

* THESE STATIONS ARE NOT UNDER NWS QUALITY CONTROL. THEY ALSO MAY NOT
  REPORT WEATHER SUCH AS PRECIPITATION OR FOG.

ILZ001-002-007-009-015-016-024-280600-
NORTHWEST ILLINOIS

CITY           SKY/WX    TMP DP  RH WIND       PRES   REMARKS
MOLINE         PTCLDY    75  68  78 CALM      29.93R
STERLING*      PTCLDY    75  71  87 CALM      29.94S
SAVANNA*       CLEAR     71  70  94 CALM      29.94R
$$

ILZ003-004-008-010-011-017-018-280600-
NORTH CENTRAL ILLINOIS

CITY           SKY/WX    TMP DP  RH WIND       PRES   REMARKS
ROCKFORD       PTCLDY    70  66  87 CALM      29.95S
FREEPORT*      CLEAR     69  67  92 E5        29.96S
ROCHELLE*      PTCLDY    68  67  98 CALM      29.95R
DE KALB*       PTCLDY    72  69  90 CALM      29.96S
$$

ILZ005-006-012>014-019>023-280600-
NORTHEAST ILLINOIS

CITY           SKY/WX    TMP DP  RH WIND       PRES   REMARKS
CHICAGO-OHARE  PTCLDY    77  64  64 E5        29.94F
CHICAGO-MIDWAY PTCLDY    79  66  64 SE5       29.93F HX  81
AURORA         PTCLDY    73  68  84 CALM      29.94F
LANSING*       CLEAR     72  66  81 CALM      29.95S
JOLIET*        CLEAR     71  69  93 CALM      29.94S
WAUKEGAN       CLOUDY    75  73  93 CALM      29.94F
DUPAGE AIRPORT PTCLDY    73  66  78 CALM      29.94F
KANKAKEE*      CLEAR     71  68  89 CALM      29.95F
WHEELING       CLEAR     73  66  78 S3        29.95F
MORRIS*        CLEAR     72  69  93 CALM      29.93S
ROMEOVILLE*    CLEAR     71  65  81 S6        29.94S
NORTHERLY ISL    N/A     73  68  84 SE6         N/A
$$

LMZ740>746-280600-
SOUTHERN LAKE MICHIGAN

STATION/POSITION SKY/WX   TEMP    WIND        PRES    VSBY  WAVE
                          AIR SEA DIR/SP/G                  HT/PER
                          (F)     (DEG/KT/KT) (MB)    (MI)  (FT/S)
SOUTHERN BUOY              76 75  150/  6/  6 1013.1S         1
WILMETTE HARBOR            75 75  160/  4/  6   N/A           1
HARRISON CRIB              77     130/ 15/ 16   N/A
BURNHAM HARBOR             73     160/  3/ 11   N/A
CALUMET HARBOR             76      90/  5/  7 1013.8R
BURNS HARBOR               78     140/  2/ 25 1014.2F
MICHIGAN CITY              77     340/  6/  6   N/A
MICHIGAN CITY 6N           77 77   10/  4/  4   N/A           1
ST. JOSEPH                 78 79  200/  4/  8 1013.4F         1
$$

ILZ025>027-034>036-040-047-049-050-058-095>099-280600-
WEST-CENTRAL ILLINOIS

CITY           SKY/WX    TMP DP  RH WIND       PRES   REMARKS
QUINCY         CLEAR     72  69  90 SE8       29.92F
GALESBURG*     CLEAR     74  70  89 CALM      29.94S
MACOMB*        CLEAR     71  69  94 CALM      29.96S
JACKSONVILLE*  TSTM      72  65  79 SW7       29.92F
PITTSFIELD*    CLOUDY    77  70  78 E5        29.95S
$$

ILZ028>032-037-038-041>044-048-051>054-059>061-280600-
CENTRAL ILLINOIS

CITY           SKY/WX    TMP DP  RH WIND       PRES   REMARKS
BLOOMINGTON    CLOUDY    75  70  84 SE7       29.96F
DECATUR        PTCLDY    74  71  91 E5        29.94F
PEORIA         CLOUDY    76  70  82 S7        29.94S
LACON*         MOCLDY    74  70  87 SW3       29.92F
LINCOLN*       CLOUDY    75  73  95 CALM      29.94S
SPRINGFIELD    MOCLDY    78  74  87 SE3       29.94S HX  81
TAYLORVILLE    PTCLDY    75  74  98 MISG      29.94F
$$

ILZ033-039-045-046-055>057-062-063-280600-
EAST-CENTRAL ILLINOIS

CITY           SKY/WX    TMP DP  RH WIND       PRES   REMARKS
CHAMPAIGN      PTCLDY    73  69  87 E3        29.95F
MATTOON        PTCLDY    76  72  87 CALM      29.95S
PARIS*         MOCLDY    71  71  99 CALM      29.96S
$$

ILZ079-100>102-280600-
SOUTHWEST ILLINOIS

CITY           SKY/WX    TMP DP  RH WIND       PRES   REMARKS
ALTON          CLOUDY    75  74  97 CALM      29.93F
BELLEVILLE     CLOUDY    78  75  92 CALM      29.92S
CAHOKIA*       PTCLDY    79  75  87 CALM      29.91F HX  83
SPARTA*        CLOUDY    76  72  86 S7        29.94S
$$

ILZ064>066-069>071-074>076-080>082-084>086-088>090-092>094-280600-
SOUTH-CENTRAL ILLINOIS

CITY           SKY/WX    TMP DP  RH WIND       PRES   REMARKS
CARBONDALE     CLOUDY    75  71  87 E3        29.93S
CAIRO*         RAIN      73  73  99 SE3       29.92F
EFFINGHAM*     CLOUDY    75  75 100 CALM      29.96S FOG
MARION         CLOUDY    75  73  94 S7        29.94S
MT. VERNON     CLOUDY    75  70  83 MISG      29.93F
CENTRALIA*     CLOUDY    76  74  94 CALM      29.94R
SALEM*         CLOUDY    78  73  86 CALM      29.95R
METROPOLIS*    LGT RAIN  73  72  97 CALM      29.93F
$$

ILZ067-068-072-073-078-083-087-091-280600-
SOUTHEAST ILLINOIS

CITY           SKY/WX    TMP DP  RH WIND       PRES   REMARKS
LAWRENCEVILLE  CLOUDY    77  74  90 CALM      29.94S
FLORA*         MOCLDY    78  76  95 CALM      29.95R HX  80
FAIRFIELD*     CLOUDY    76  75  97 CALM      29.93S
HARRISBURG*    CLOUDY    74  72  95 NW3       29.93F
ROBINSON*      CLOUDY    75  73  96 CALM      29.95S
CARMI*         CLOUDY    74  73  98 CALM      29.93F
$$

ABBREVIATIONS USED IN REMARKS
   TC - TEMPERATURE IN CELSIUS
  WCI - WIND CHILL INDEX
   HX - HEAT INDEX
  VSB - VISIBILITY
$$




USA.gov is the U.S. government's official web portal to all federal, state and local government web resources and services.